Reflectivity
-20 -20 -20 -20 -20 -20 -20 -20 -20 -20 -20 -20 -20 -20 -20 -20 -20 -20 -20 -19 -18 9 11 14 11 -20 -1 3 4 12 10 13 17 16 18 17 16 9 -20 -20 -20 -20 -20 -20 -20 -20 -20 -20 -20
-20 -20 -20 -20 -20 -20 -20 -20 -20 -20 -20 -20 -20 -8 -20 -20 -20 -19 -10 -11 -4 3 13 -3 8 -8 -4 -8 8 12 17 17 15 17 16 8 -20 -20 -20 -20 -20 -20 -20 -20 -20 -20 -20 -20 -20
-20 -20 -20 -20 -20 -20 -20 -20 -20 -20 -20 -20 -20 -20 -20 -20 -20 -20 -4 9 -20 -2 -12 -20 17 11 15 17 17 17 17 16 15 14 -20 -20 -20 -20 -20 -20 -20 -20 -20 -20 -20 -20 -20 -20 -20
-20 -20 -20 -20 -20 -20 -20 -20 -20 -20 -20 -20 -20 -20 -20 -20 -20 -20 14 -20 -20 -20 -10 7 11 11 15 16 15 15 15 14 -20 -20 -20 -20 -20 -20 -20 -20 -20 -20 -20 -20 -20 -20 -20 -20 -20
-20 -20 -20 -20 -20 -20 -20 -20 -20 -20 -20 -20 -20 -20 -20 -20 -20 6 -2 -20 -20 -20 -17 -4 11 6 4 -4 13 14 11 -20 -20 -20 -20 -20 -20 -20 -20 -20 -20 -20 -20 -20 -20 -20 -20 -20 -20
-20 -20 -20 -20 -20 -20 -20 -20 -20 -20 -20 -20 -20 -20 -20 -20 -20 -8 2 -20 -20 -20 -20 -20 5 2 -6 9 14 10 -20 -20 -20 -20 -20 -20 -20 -20 -20 -20 -20 -20 -20 -20 -20 -20 -20 -20 -20
-20 -20 -20 -20 -20 -20 -20 -20 -20 -20 -20 -20 -20 -20 -20 -20 -20 -14 13 -19 -20 -20 -20 -20 -20 -20 3 9 -5 -20 -20 -20 -20 -20 -20 -20 -20 -20 -20 -20 -20 -20 -20 -20 -20 -20 -20 -20 -20
-20 -20 -20 -20 -20 -20 -20 -20 -20 -20 -20 -20 -20 -20 -20 -20 -20 -19 -8 -19 -20 -20 -20 -20 -20 -20 -20 -20 -20 -20 -20 -20 -20 -20 -20 -20 -20 -20 -20 -20 -20 -20 -20 -20 -20 -20 -20 -20 -20
-20 -20 -20 -20 -20 -20 -20 -20 -20 -20 -20 -20 -20 -20 -20 -20 -20 -20 -20 -20 -20 -20 -20 -20 -20 -20 -20 -20 -20 -20 -20 -20 -20 -20 -20 -20 -20 -20 -20 -20 -20 -20 -20 -20 -20 -20 -20 -20 -20
-20 -20 -20 -20 -20 -20 -20 -20 -20 -20 -20 -20 -20 -20 -20 -20 -20 -20 -20 -20 -20 -20 -20 -20 -20 -20 -20 -20 -20 -20 -20 -20 -20 -20 -20 -20 -20 -20 -20 -20 -20 -20 -20 -20 -20 -20 -20 -20 -20
-20 -20 -20 -20 -20 -20 -20 -20 -20 -20 -20 -20 -20 -20 -20 -20 -20 -20 -20 -20 -20 -20 -20 -20 -20 -20 -20 -20 -20 -20 -20 -20 -20 -20 -20 -20 -20 -20 -20 -20 -20 -20 -20 -20 -20 -20 -20 -20 -20
-20 -20 -20 -20 -20 -20 -20 -20 -20 -20 -20 -20 -20 -20 -20 -20 -20 -20 -20 -20 -20 -20 -20 -20 -20 -20 -20 -20 -20 -20 -20 -20 -20 -20 -20 -20 -20 -20 -20 -20 -20 -20 -20 -20 -20 -20 -20 -20 -20
-20 -20 -20 -20 -20 -20 -20 -20 -20 -20 -20 -20 -20 -20 -20 -20 -20 -20 -20 -20 -20 -20 -20 -20 -20 -20 -20 -20 -20 -20 -20 -20 -20 -20 -20 -20 -20 -20 -20 -20 -20 -20 -20 -20 -20 -20 -20 -20 -20
-20 -20 -20 -20 -20 -20 -20 -20 -20 -20 -20 -20 -20 -20 -20 -20 -20 -20 -20 -20 -20 -20 -20 -20 -20 -20 -20 -20 -20 -20 -20 -20 -20 -20 -20 -20 -20 -20 -20 -20 -20 -20 -20 -20 -20 -20 -20 -20 -20
-20 -20 -20 -20 -20 -20 -20 -20 -20 -20 -20 -20 -20 -20 -20 -20 -20 -20 -20 -20 -20 -20 -20 -20 -20 -20 -20 -20 -20 -20 -20 -20 -20 -20 -20 -20 -20 -20 -20 -20 -20 -20 -20 -20 -20 -20 -20 -20 -20
-20 -20 -20 -20 -20 -20 -20 -20 -20 -20 -20 -20 -20 -20 -20 -20 -20 -20 -20 -20 -20 -20 -20 -20 -20 -20 -20 -20 -20 -20 -20 -20 -20 -20 -20 -20 -20 -20 -20 -20 -20 -20 -20 -20 -20 -20 -20 -20 -20
-20 -20 -20 -20 -20 -20 -20 -20 -20 -20 -20 -20 -20 -20 -20 -20 -20 -20 -20 -20 -20 -20 -20 -20 -20 -20 -20 -20 -20 -20 -20 -20 -20 -20 -20 -20 -20 -20 -20 -20 -20 -20 -20 -20 -20 -20 -20 -20 -20
-20 -20 -20 -20 -20 -20 -20 -20 -20 -20 -20 -20 -20 -20 -20 -20 -20 -20 -20 -20 -20 -20 -20 -20 -20 -20 -20 -20 -20 -20 -20 -20 -20 -20 -20 -20 -20 -20 -20 -20 -20 -20 -20 -20 -20 -20 -20 -20 -20
-20 -20 -20 -20 -20 -20 -20 -20 -20 -20 -20 -20 -20 -20 -20 -20 -20 -20 -20 -20 -20 -20 -20 -20 -20 -20 -20 -20 -20 -20 -20 -20 -20 -20 -20 -20 -20 -20 -20 -20 -20 -20 -20 -20 -20 -20 -20 -20 -20
-20 -20 -20 -20 -20 -20 -20 -20 -20 -20 -20 -20 -20 -20 -20 -20 -20 -20 -20 -20 -20 -20 -20 -20 -20 -20 -20 -20 -20 -17 -1 -20 -20 -20 -20 -20 -20 -20 -20 -20 -20 -20 -20 -20 -20 -20 -20 -20 -20
-20 -20 -20 -20 -20 -20 -20 -20 -20 -20 -20 -20 -20 -20 -20 -20 -20 -20 -20 -20 -20 -20 -20 4 -6 -6 -3 -2 -1 -16 -14 -20 -20 -20 -12 -20 -8 4 -12 -20 -20 -16 -20 -20 -20 -20 -20 -20 -20
-20 -20 -20 -20 -20 -20 -20 -20 -20 -20 -20 -20 -20 -20 -20 -20 -20 -20 -20 -20 -20 -20 -20 -20 10 -18 13 -20 -8 11 6 6 -20 -3 -9 1 3 -12 -20 -19 -20 -20 -20 -20 -20 -20 -20 -20 -20
-20 -20 -20 -20 -20 -20 -20 -13 -20 -20 -20 -20 -20 -20 -20 -20 -20 -20 -20 -20 -20 -20 -20 -20 -20 -1 -19 -7 22 19 24 25 27 15 5 8 -17 -20 -20 -20 -20 -20 -20 -20 -20 -20 -20 -20 -20
-20 -19 -11 -20 -19 -10 -20 -20 -20 -20 -20 -20 -20 -20 -20 -20 -20 -20 -20 -20 -20 -20 -20 -20 -10 9 -9 -10 -9 23 19 15 18 14 14 1 4 -17 -20 -20 -20 -20 -20 -20 -20 -20 -20 -20 -20
-20 -14 1 6 9 -14 -20 -10 -20 -20 -20 -20 -20 -20 -20 -20 -20 -20 -20 -20 -20 -20 -20 -20 -14 -2 -14 -20 13 22 30 12 -0 -2 -5 -2 -19 -20 -20 -19 -1 -15 -20 -20 -20 -20 -20 -20 -20
-20 -20 -3 -18 -6 -20 -20 -10 -20 -20 -20 -20 -20 -20 -20 -20 -20 -20 -20 -20 -20 -20 -20 -20 -20 -20 -20 8 -11 14 30 26 -6 -1 -20 -5 7 3 3 11 8 -19 -20 -20 -20 -20 -20 -20 -20
-20 0 -20 -2 8 18 -12 -20 -20 -20 -20 -20 -20 -20 -20 -20 -20 -20 -20 -20 -20 -20 -20 -20 -20 -20 -14 17 10 8 20 26 17 6 -18 -13 2 9 10 -17 -20 -20 -20 -20 -20 -20 -20 -20 -20
-20 -20 -20 -4 17 18 -12 -20 -20 -20 -20 -20 -20 -20 -20 -20 -20 -20 -20 -20 -20 -20 -20 -20 -20 -20 -20 8 21 22 31 37 26 11 10 12 12 11 -4 -20 -20 -20 -20 -20 -20 -20 -20 -20 -20
-20 -8 -20 -14 -18 -11 -20 -20 -20 -20 -20 -20 -20 -20 -20 -20 -20 -20 -20 -20 -20 -20 -20 -20 -20 -20 -20 -6 21 30 24 5 16 -6 -7 1 8 -19 -20 -20 -20 -20 -20 -20 -20 -20 -20 -20 -20
-5 -20 5 19 -5 13 -16 15 -20 -20 -20 -20 -20 -20 -20 -20 -20 -20 -20 -20 -20 -20 -20 -20 -20 -20 -20 13 32 28 30 19 15 4 6 -20 -20 -20 -20 -20 -20 -20 -20 -20 -20 -20 -20 -20 -20
Wind_Speed
6 5 3 5 5 5 3 7 3 6 3 3 2 1 2 2 5 5 2 0 10 9 7 11 18 19 18 17 17 17 17 17 18 18 18 18 18 17 18 17 17 15 15 14 13 12 12 12 12
6 4 5 3 5 1 6 5 8 6 3 5 3 2 2 3 0 2 3 3 10 7 7 9 16 18 19 18 16 16 17 17 16 17 17 16 17 17 17 17 16 15 14 14 14 14 14 14 13
6 4 4 4 4 7 6 6 3 2 3 5 3 1 1 2 1 6 2 11 11 8 9 11 15 15 15 14 15 16 16 16 17 17 17 16 16 16 16 16 16 15 15 15 16 15 15 15 15
4 4 4 3 8 7 7 5 2 10 7 5 3 3 1 2 4 5 8 12 11 9 10 14 14 15 15 15 14 14 15 16 16 16 16 16 16 16 16 16 16 16 16 17 17 16 16 16 16
4 3 1 3 6 6 7 5 5 8 5 7 7 6 3 1 5 10 9 10 12 10 10 11 14 15 16 16 14 14 16 16 16 16 15 16 17 17 16 16 16 16 17 17 18 17 16 16 16
3 3 1 5 6 6 6 6 4 5 5 2 3 6 5 3 9 10 9 7 8 12 11 12 16 15 14 14 14 14 15 16 16 16 16 16 17 17 17 16 17 17 17 18 17 16 15 16 15
6 4 5 4 5 8 4 5 3 5 5 5 6 5 2 7 10 11 9 7 6 6 10 11 12 14 14 14 14 13 15 16 16 17 17 17 17 17 17 17 17 17 16 17 16 15 16 15 15
6 5 4 5 2 14 5 2 3 3 3 2 3 6 6 10 14 12 9 7 6 5 5 8 8 9 8 8 15 15 15 16 17 18 18 17 17 17 17 15 16 16 16 16 16 16 15 15 15
3 2 5 7 8 9 4 3 2 1 4 2 4 3 0 19 15 12 8 8 8 5 6 5 7 6 6 6 8 15 18 18 17 16 16 12 5 7 9 15 15 16 15 15 15 15 14 13 14
4 5 9 9 7 9 4 4 2 3 5 5 4 1 12 18 17 16 16 14 13 12 7 7 8 8 6 4 4 4 5 4 5 6 7 5 6 6 8 12 15 15 15 15 15 14 13 10 4
6 9 5 7 10 9 7 2 7 5 6 11 12 11 19 20 17 17 19 16 13 10 8 6 8 7 7 5 4 3 3 3 4 6 6 6 5 5 4 4 4 4 10 4 7 6 5 7 5
4 8 7 4 6 5 5 3 3 9 14 10 11 17 19 21 22 24 22 19 16 13 11 7 6 8 6 4 4 5 4 3 4 4 6 6 4 5 4 4 4 4 3 6 6 4 4 5 6
5 5 9 7 8 6 6 13 9 9 13 3 11 17 20 20 21 16 13 11 13 13 13 11 7 6 5 6 5 4 4 4 5 5 5 5 5 5 4 4 4 4 4 5 4 4 4 6 7
4 5 9 9 9 6 8 14 8 11 6 6 14 18 18 20 22 15 14 15 16 15 15 13 11 8 7 6 7 5 5 5 4 4 4 6 5 5 5 4 4 4 5 3 3 5 6 5 5
4 7 13 12 6 8 7 9 11 11 7 11 12 12 13 16 15 22 20 16 15 14 14 15 13 10 9 9 7 6 6 5 5 4 6 6 5 6 6 5 4 4 4 4 4 7 6 5 4
5 4 7 1 1 5 7 11 10 7 10 13 11 12 15 19 27 19 16 15 16 14 16 14 12 13 12 9 6 6 5 5 4 4 4 6 6 6 5 5 4 4 4 4 5 4 4 4 4
5 10 7 10 10 7 9 11 8 1 7 9 8 11 15 15 15 16 16 16 16 15 16 15 14 14 12 9 6 6 7 5 4 4 4 5 6 6 6 5 4 5 4 4 4 3 3 3 3
9 6 5 7 3 1 8 12 11 7 9 13 11 13 12 13 22 21 17 15 16 15 16 15 12 13 12 9 8 5 4 4 4 4 4 7 5 7 7 5 4 4 4 4 4 4 4 3 3
7 10 13 3 7 10 17 23 19 13 9 12 12 10 13 16 20 10 12 14 15 16 18 18 17 15 12 10 10 6 6 4 3 4 6 6 6 7 6 5 5 4 4 4 5 4 5 4 2
15 19 19 11 8 8 12 26 12 9 16 11 15 13 17 18 14 14 17 18 19 18 19 19 19 18 14 11 9 5 6 2 3 3 5 5 7 6 6 6 5 5 4 5 4 3 3 3 3
19 20 13 16 3 9 9 34 18 10 13 13 14 16 18 21 21 18 21 23 19 22 24 22 22 20 16 15 9 8 6 5 3 3 3 4 7 6 6 6 5 4 3 4 3 3 4 4 3
24 9 12 11 3 10 7 20 11 15 16 7 10 13 18 17 13 16 20 21 24 22 19 22 21 22 20 19 12 17 10 8 2 4 4 5 5 6 7 7 6 5 4 5 3 2 3 3 4
12 8 13 10 7 4 8 8 14 11 9 7 11 15 13 12 14 19 23 27 23 21 22 21 21 21 18 18 18 15 13 7 8 6 7 7 5 6 6 6 5 5 4 5 5 4 5 2 3
11 5 12 10 8 11 12 12 27 7 12 7 10 7 7 7 10 15 13 10 14 15 18 20 24 22 20 19 18 17 17 13 12 9 8 6 6 4 5 6 6 5 5 5 5 5 5 4 4
6 7 4 7 8 13 13 13 24 8 6 5 7 10 11 9 7 8 14 16 18 23 22 19 22 20 19 19 17 14 15 15 16 14 9 10 6 4 6 6 6 3 5 5 6 6 6 3 3
13 12 8 9 7 9 9 12 8 7 8 9 6 6 9 13 10 8 11 13 14 16 18 19 21 20 21 19 19 14 15 10 11 13 11 9 8 7 7 6 6 6 7 5 6 5 5 4 3
12 16 23 8 1 0 6 4 1 5 12 14 14 16 16 13 13 6 7 6 9 13 14 15 17 16 18 17 15 15 14 13 14 15 13 10 11 9 9 8 8 7 7 7 7 5 5 4 3
10 7 5 8 8 10 7 4 8 3 6 6 9 9 9 11 8 8 7 6 4 6 8 11 16 18 17 18 16 17 20 17 14 13 15 14 10 11 12 9 9 9 7 6 8 6 5 5 3
7 10 4 3 5 6 3 7 1 7 4 5 5 5 6 6 5 4 6 7 8 5 6 8 13 16 18 17 14 14 14 13 12 11 11 12 13 12 11 11 11 9 8 7 7 6 6 6 6
2 3 17 9 10 4 1 3 5 4 3 4 3 6 5 1 4 5 6 6 10 9 7 5 5 8 10 11 13 12 11 12 15 14 11 12 13 12 12 13 11 9 8 7 8 7 6 7 6
Wind_Direction
118 111 90 42 57 63 255 257 249 263 283 314 324 92 239 49 178 204 333 37 126 139 141 146 137 130 130 128 126 124 124 124 123 120 120 117 113 110 107 104 101 99 96 91 86 81 73 65 60
130 104 44 85 93 75 266 244 228 234 239 172 137 312 56 282 98 151 149 156 122 119 124 120 123 130 139 138 131 126 126 124 123 121 119 115 111 108 104 101 97 95 92 88 81 74 69 62 57
127 66 92 113 141 192 221 225 236 252 219 208 152 74 200 217 243 164 158 126 109 102 112 121 114 115 118 118 119 122 123 124 124 125 117 114 107 102 99 96 93 88 84 80 75 73 66 60 52
126 28 35 106 234 254 216 242 269 314 303 225 120 214 94 251 171 160 140 124 112 113 114 102 108 111 116 113 114 123 127 128 123 118 116 112 104 100 99 96 92 85 81 77 71 67 62 56 51
52 74 185 246 254 261 249 262 255 265 259 241 167 203 192 80 108 136 140 132 126 117 117 113 115 120 121 123 132 136 137 128 123 119 116 112 109 103 97 94 90 84 80 77 72 66 61 56 52
66 105 97 246 247 255 264 220 226 235 247 304 129 150 186 133 138 150 140 136 138 136 134 130 132 127 131 139 146 146 137 132 124 117 109 108 105 101 96 95 86 84 79 77 71 66 63 59 55
136 108 230 242 264 274 241 191 214 268 284 240 121 169 185 175 166 143 138 134 133 130 138 140 141 139 145 147 147 146 141 132 128 119 110 106 102 96 92 92 85 82 80 73 69 65 61 59 56
122 121 216 231 226 279 204 181 241 290 301 138 142 211 235 181 158 136 135 141 140 141 140 136 129 139 133 140 152 151 142 138 130 124 115 109 105 95 89 83 83 80 78 72 68 62 57 54 53
123 123 229 225 176 249 205 308 234 96 128 222 205 234 210 144 145 143 154 159 161 158 147 114 107 100 100 121 159 153 148 141 134 129 115 105 99 94 94 92 86 83 75 69 65 62 59 54 51
150 176 232 193 202 260 237 182 286 222 186 234 268 6 136 150 161 173 183 182 178 172 159 140 126 132 134 135 112 93 107 89 101 110 112 116 112 103 97 95 88 82 73 67 63 60 54 52 48
195 236 199 234 231 243 267 218 184 214 262 219 211 168 161 165 176 187 195 194 184 166 161 151 145 143 142 133 121 104 103 97 95 108 109 102 92 86 95 88 84 84 78 69 59 48 40 32 30
222 248 221 260 221 254 248 226 225 177 239 238 223 162 161 175 185 193 196 190 183 170 167 159 158 153 147 133 126 124 120 113 115 111 116 118 107 98 89 84 87 80 67 71 58 47 44 43 36
217 257 269 263 262 246 285 269 243 224 246 121 132 158 181 190 192 192 190 177 179 176 169 167 157 163 149 135 132 123 124 125 131 128 135 120 111 115 109 100 93 83 79 65 62 67 48 41 32
241 260 271 281 272 235 234 266 148 243 145 150 161 186 187 194 193 181 184 185 185 177 177 163 166 160 155 147 141 141 137 135 120 115 126 122 124 119 109 104 84 70 65 84 90 66 53 44 35
254 290 292 273 232 236 197 276 219 249 172 175 192 195 199 200 190 201 193 186 183 184 170 169 164 154 161 156 147 143 144 135 134 135 135 129 129 125 124 111 94 85 81 78 70 59 55 56 52
308 269 270 259 30 271 167 260 272 231 170 209 202 199 199 200 203 198 193 187 180 177 174 167 169 163 158 154 145 141 136 128 123 122 128 132 121 115 112 107 98 103 91 82 70 76 68 69 66
219 257 233 299 208 242 180 272 263 44 206 240 215 216 213 208 210 207 197 186 177 173 167 170 166 166 158 143 129 132 132 121 124 121 119 123 118 116 111 107 112 113 96 78 83 71 96 93 97
222 233 227 223 281 153 286 266 269 260 203 233 227 218 214 217 221 205 195 182 170 170 168 164 158 159 154 144 131 112 108 117 131 134 133 133 131 123 112 101 101 96 97 93 84 88 64 105 116
242 263 249 223 284 297 273 275 273 266 247 238 242 213 213 218 230 201 189 181 175 167 167 167 160 161 154 153 147 146 152 147 126 132 137 129 116 109 111 112 111 102 105 125 138 102 84 56 8
231 242 253 277 243 256 287 279 267 240 256 214 227 222 217 224 210 190 184 182 183 175 172 170 167 163 165 164 160 138 141 124 123 123 114 123 121 120 126 121 119 121 112 113 101 129 130 96 22
231 230 237 248 286 262 308 285 284 240 238 242 228 227 219 216 211 192 184 189 177 183 182 173 166 165 165 164 133 111 95 92 106 144 131 138 122 121 120 111 125 124 116 107 94 113 135 133 47
248 204 228 233 204 265 176 289 268 271 254 231 239 225 228 222 209 191 188 184 189 187 177 173 169 171 166 159 153 155 160 159 121 147 128 114 112 119 127 129 135 128 124 107 102 85 95 115 138
243 191 227 227 224 251 196 261 279 353 292 249 250 245 230 221 199 191 193 195 188 174 177 174 169 167 168 166 164 162 150 137 134 140 138 134 128 126 122 123 130 127 112 108 114 90 75 65 113
232 252 264 257 244 245 228 206 277 197 240 226 253 324 335 265 212 207 197 157 176 173 176 174 173 173 169 168 163 163 156 149 150 159 152 152 134 127 124 131 131 129 122 125 125 99 83 80 83
139 162 226 224 197 240 163 191 233 148 40 18 343 346 345 343 265 177 167 176 174 175 176 177 175 173 168 162 158 161 155 156 160 160 159 155 150 154 157 143 131 133 125 128 115 105 101 91 94
192 171 200 218 202 243 168 230 235 91 59 45 36 12 4 3 328 185 179 173 176 174 176 177 177 168 169 160 160 149 155 166 167 166 162 158 156 151 146 139 124 132 119 116 101 101 90 94 97
200 212 225 294 42 49 220 262 294 68 51 39 29 26 17 1 8 47 130 142 162 167 176 180 172 165 165 164 155 154 158 176 176 167 164 153 148 146 142 133 133 123 114 122 113 99 103 101 112
200 161 145 199 232 235 230 224 225 71 64 45 33 16 13 20 18 35 53 87 87 132 146 164 175 170 170 167 166 172 175 179 171 160 156 152 147 140 134 131 132 117 128 122 110 107 114 120 106
174 214 173 139 187 204 231 255 322 111 116 89 41 356 8 20 28 82 120 120 111 106 151 176 176 179 175 177 173 180 172 163 153 155 150 147 138 139 139 140 126 134 133 126 113 116 120 124 102
88 294 213 203 197 213 184 221 97 110 75 46 12 352 340 124 110 149 157 146 146 150 157 193 191 173 181 172 160 169 156 156 153 146 150 148 139 143 144 132 134 136 133 129 127 139 139 123 130